Regional Weather Roundup
Issued by NWS Goodland, KS

Home | Current Version | Previous Version | Graphics & Text | Print | Product List | Glossary On
Versions: 1 2 3 4 5 6 7 8 9 10 11 12 13 14 15 16 17 18 19 20 21 22 23 24 25 26 27 28 29 30 31 32 33 34 35 36 37 38 39 40 41 42 43 44 45 46 47 48 49 50
000
ASUS43 KGLD 300759
RWRGLD

GOODLAND FORECAST AREA HOURLY WEATHER ROUNDUP
NATIONAL WEATHER SERVICE GOODLAND KS
200 AM MDT THU OCT 30 2014

...OFFICIAL OBSERVATIONS...

CITY           SKY/WX    TMP DP  RH WIND       PRES   REMARKS
GOODLAND KS    CLEAR     40  25  55 W9        30.16R
HILL CITY KS   LGT RAIN  54  27  35 NW15      30.04R
IMPERIAL NEB   CLEAR     42  24  49 NW10      30.15R
MCCOOK NEB     CLEAR     47  25  42 W7        30.08R
AKRON CO       CLEAR     41  25  53 NW10      30.20R
BURLINGTON CO  CLEAR     42  23  46 NW10      30.18R
LIMON CO       CLEAR     37  21  52 NW8       30.24R
$$

...UNOFFICIAL OBSERVATIONS...

CITY           SKY/WX    TMP DP  RH WIND       PRES   REMARKS
COLBY KS       CLEAR     45  28  53 NW10      30.12R
NORTON KS      CLEAR     48  25  40 NW10      30.04R
SHARON SPRINGS   N/A     38  28  67 NW9         N/A
TRIBUNE KS     CLEAR     50  34  53 NW10      30.15R
TRENTON NEB      N/A     47  32  56 NW12        N/A
$$



USA.gov is the U.S. government's official web portal to all federal, state and local government web resources and services.